GW0019 Weather Reports


time (UTC)temp
F
wind
direction
speed
knots
gust
knots
rain 1hr
in
rain 24hr
in
rain mn
in
humidity
%
barometer
mb
20260509175525 78 219 7.0 9.6 0.00 0.00 0.00 75 1015.5
20260509175023 78 219 7.0 9.6 0.00 0.00 0.00 75 1015.5
20260509174519 78 219 7.0 9.6 0.00 0.00 0.00 75 1015.5
20260509174014 79 259 0.0 7.0 0.00 0.00 0.00 75 1015.5
20260509173509 78 251 7.0 7.8 0.00 0.00 0.00 75 1015.8
20260509173005 78 251 7.0 7.8 0.00 0.00 0.00 75 1015.6
20260509172503 78 251 7.0 7.8 0.00 0.00 0.00 75 1015.7
20260509171958 78 250 4.3 7.0 0.00 0.00 0.00 75 1016.0
20260509171454 77 236 7.8 9.6 0.00 0.00 0.00 75 1015.7
20260509170951 78 300 0.0 0.9 0.00 0.00 0.00 75 1015.7
20260509170446 76 262 4.3 7.8 0.00 0.00 0.00 74 1015.8
20260509165942 76 262 7.8 9.6 0.00 0.00 0.00 75 1015.7
20260509165441 76 249 7.0 7.8 0.00 0.00 0.00 74 1016.0
20260509164937 76 254 7.8 8.7 0.00 0.00 0.00 74 1015.7
20260509164433 76 268 6.1 9.6 0.00 0.00 0.00 74 1016.2
20260509163929 76 192 1.7 7.8 0.00 0.00 0.00 75 1016.0
20260509163427 75 268 6.1 10.4 0.00 0.00 0.00 74 1015.8
20260509162926 76 245 3.5 4.3 0.00 0.00 0.00 74 1015.8
20260509162425 76 180 0.9 4.3 0.00 0.00 0.00 74 1016.1
20260509161921 75 249 6.1 7.8 0.00 0.00 0.00 74 1016.1
20260509161417 74 242 4.3 5.2 0.00 0.00 0.00 74 1016.1
20260509160912 74 285 6.1 6.1 0.00 0.00 0.00 74 1015.8
20260509160408 74 248 5.2 7.8 0.00 0.00 0.00 74 1015.7
20260509155903 74 279 7.0 7.0 0.00 0.00 0.00 74 1016.1
20260509155400 74 248 6.1 7.0 0.00 0.00 0.00 74 1015.8
20260509154857 72 259 4.3 7.8 0.00 0.00 0.00 74 1016.0
20260509154353 73 242 7.8 8.7 0.00 0.00 0.00 74 1015.8
20260509153850 73 231 6.1 7.0 0.00 0.00 0.00 74 1016.0
20260509153347 73 291 4.3 5.2 0.00 0.00 0.00 74 1015.8
20260509152844 72 318 2.6 2.6 0.00 0.00 0.00 74 1015.8
20260509152340 72 280 8.7 9.6 0.00 0.00 0.00 74 1015.8
20260509151838 71 295 4.3 6.1 0.00 0.00 0.00 74 1016.0
20260509151333 71 254 4.3 5.2 0.00 0.00 0.00 74 1015.7
20260509150832 71 264 4.3 4.3 0.00 0.00 0.00 74 1015.8
20260509150329 71 255 4.3 6.1 0.00 0.00 0.00 74 1015.6
20260509145827 70 298 2.6 4.3 0.00 0.00 0.00 74 1016.0
20260509145321 70 306 2.6 5.2 0.00 0.00 0.00 74 1016.1
20260509144818 70 303 2.6 4.3 0.00 0.00 0.00 74 1016.0
20260509144315 69 281 2.6 4.3 0.00 0.00 0.00 74 1015.8
20260509143812 69 282 2.6 3.5 0.00 0.00 0.00 74 1016.0
20260509143309 69 265 3.5 4.3 0.00 0.00 0.00 74 1015.8
20260509142805 68 267 5.2 7.0 0.00 0.00 0.00 73 1015.5
20260509142302 68 300 2.6 4.3 0.00 0.00 0.00 73 1015.8
20260509141757 67 270 7.0 7.8 0.00 0.00 0.00 73 1015.7
20260509141254 67 274 4.3 7.0 0.00 0.00 0.00 73 1015.7
20260509140751 67 261 3.5 7.0 0.00 0.00 0.00 73 1015.4
20260509140248 66 256 4.3 7.8 0.00 0.00 0.00 73 1015.5
20260509135746 66 281 5.2 7.0 0.00 0.00 0.00 73 1015.5
20260509135243 65 275 1.7 6.1 0.00 0.00 0.00 73 1015.4
20260509134740 64 283 3.5 3.5 0.00 0.00 0.00 73 1015.2
20260509134238 64 250 7.0 7.8 0.00 0.00 0.00 73 1015.5
20260509133735 64 250 7.0 7.8 0.00 0.00 0.00 73 1015.4
20260509133231 63 276 5.2 7.0 0.00 0.00 0.00 73 1015.5
20260509132730 63 276 5.2 7.0 0.00 0.00 0.00 73 1015.4
20260509132228 63 266 6.1 7.8 0.00 0.00 0.00 73 1015.4
20260509131725 63 325 6.1 7.8 0.00 0.00 0.00 73 1015.2
20260509131221 63 272 7.0 7.0 0.00 0.00 0.00 73 1015.2
20260509130717 61 259 3.5 3.5 0.00 0.00 0.00 73 1015.2
20260509130213 61 259 3.5 3.5 0.00 0.00 0.00 73 1015.0
20260509125710 61 259 3.5 3.5 0.00 0.00 0.00 73 1015.0
20260509125207 60 266 3.5 4.3 0.00 0.00 0.00 73 1015.3
20260509124703 59 270 4.3 6.1 0.00 0.00 0.00 73 1015.0
20260509124200 59 270 4.3 6.1 0.00 0.00 0.00 73 1015.0
20260509123659 0 0.0 0.0 0.00 0.00 0.00 1014.9
20260509123155 0 0.0 0.0 0.00 0.00 0.00 1015.1
20260509122650 0 0.0 0.0 0.00 0.00 0.00 1015.0
20260509122148 0 0.0 0.0 0.00 0.00 0.00 1014.9
20260509121644 0 0.0 0.0 0.00 0.00 0.00 1014.9
20260509121142 0 0.0 0.0 0.00 0.00 0.00 1015.0
20260509120640 0 0.0 0.0 0.00 0.00 0.00 1015.0
20260509120138 0 0.0 0.0 0.00 0.00 0.00 1014.9
20260509115635 0 0.0 0.0 0.00 0.00 0.00 1014.8
20260509115133 0 0.0 0.0 0.00 0.00 0.00 1014.5
20260509114630 0 0.0 0.0 0.00 0.00 0.00 1014.5
20260509114129 0 0.0 0.0 0.00 0.00 0.00 1014.5
20260509113627 0 0.0 0.0 0.00 0.00 0.00 1014.1
20260509113124 0 0.0 0.0 0.00 0.00 0.00 1014.3
20260509112620 0 0.0 0.0 0.00 0.00 0.00 1014.2
20260509112118 0 0.0 0.0 0.00 0.00 0.00 1014.3
20260509111615 0 0.0 0.0 0.00 0.00 0.00 1014.4
20260509111111 0 0.0 0.0 0.00 0.00 0.00 1014.1
20260509110609 0 0.0 0.0 0.00 0.00 0.00 1014.2
20260509110106 0 0.0 0.0 0.00 0.00 0.00 1014.1
20260509105604 0 0.0 0.0 0.00 0.00 0.00 1014.1
20260509105101 0 0.0 0.0 0.00 0.00 0.00 1013.9
20260509104558 0 0.0 0.0 0.00 0.00 0.00 1013.9
20260509104055 0 0.0 0.0 0.00 0.00 0.00 1014.2
20260509103553 0 0.0 0.0 0.00 0.00 0.00 1013.9
20260509103051 0 0.0 0.0 0.00 0.00 0.00 1013.9
20260509102548 0 0.0 0.0 0.00 0.00 0.00 1013.9
20260509102045 0 0.0 0.0 0.00 0.00 0.00 1013.9
20260509101540 0 0.0 0.0 0.00 0.00 0.00 1014.0
20260509101037 0 0.0 0.0 0.00 0.00 0.00 1013.9
20260509100535 0 0.0 0.0 0.00 0.00 0.00 1014.2
20260509100033 0 0.0 0.0 0.00 0.00 0.00 1013.9
20260509095529 0 0.0 0.0 0.00 0.00 0.00 1014.1
20260509095026 0 0.0 0.0 0.00 0.00 0.00 1014.2
20260509094522 0 0.0 0.0 0.00 0.00 0.00 1014.2
20260509094020 0 0.0 0.0 0.00 0.00 0.00 1014.1
20260509093518 0 0.0 0.0 0.00 0.00 0.00 1014.1
20260509093015 0 0.0 0.0 0.00 0.00 0.00 1014.2
20260509092513 0 0.0 0.0 0.00 0.00 0.00 1014.1
20260509092012 0 0.0 0.0 0.00 0.00 0.00 1014.2
20260509091508 0 0.0 0.0 0.00 0.00 0.00 1014.3
20260509091005 0 0.0 0.0 0.00 0.00 0.00 1014.4
20260509090502 0 0.0 0.0 0.00 0.00 0.00 1014.5
20260509090000 0 0.0 0.0 0.00 0.00 0.00 1014.2
20260509085457 0 0.0 0.0 0.00 0.00 0.00 1014.2
20260509084953 0 0.0 0.0 0.00 0.00 0.00 1014.3
20260509084449 0 0.0 0.0 0.00 0.00 0.00 1014.0
20260509083946 0 0.0 0.0 0.00 0.00 0.00 1014.3
20260509083444 0 0.0 0.0 0.00 0.00 0.00 1014.3
20260509082941 0 0.0 0.0 0.00 0.00 0.00 1014.1
20260509082438 0 0.0 0.0 0.00 0.00 0.00 1014.2
20260509081935 0 0.0 0.0 0.00 0.00 0.00 1013.9
20260509081432 0 0.0 0.0 0.00 0.00 0.00 1013.8
20260509080930 0 0.0 0.0 0.00 0.00 0.00 1013.9
20260509080427 0 0.0 0.0 0.00 0.00 0.00 1013.9
20260509075925 0 0.0 0.0 0.00 0.00 0.00 1013.9
20260509075422 0 0.0 0.0 0.00 0.00 0.00 1013.9
20260509074920 0 0.0 0.0 0.00 0.00 0.00 1013.8
20260509074417 0 0.0 0.0 0.00 0.00 0.00 1013.9
20260509073913 0 0.0 0.0 0.00 0.00 0.00 1013.9
20260509073410 0 0.0 0.0 0.00 0.00 0.00 1013.9
20260509072906 0 0.0 0.0 0.00 0.00 0.00 1014.0
20260509072403 0 0.0 0.0 0.00 0.00 0.00 1014.1
20260509071859 0 0.0 0.0 0.00 0.00 0.00 1013.9
20260509071357 0 0.0 0.0 0.00 0.00 0.00 1013.9
20260509070854 0 0.0 0.0 0.00 0.00 0.00 1013.9
20260509070351 0 0.0 0.0 0.00 0.00 0.00 1014.0
20260509065846 0 0.0 0.0 0.00 0.00 0.00 1014.0
20260509065343 0 0.0 0.0 0.00 0.00 0.00 1013.8
20260509064839 0 0.0 0.0 0.00 0.00 0.00 1013.9
20260509064337 0 0.0 0.0 0.00 0.00 0.00 1013.7
20260509063834 0 0.0 0.0 0.00 0.00 0.00 1013.9
20260509063330 0 0.0 0.0 0.00 0.00 0.00 1013.8
20260509062828 0 0.0 0.0 0.00 0.00 0.00 1013.6
20260509062324 0 0.0 0.0 0.00 0.00 0.00 1013.6
20260509061822 0 0.0 0.0 0.00 0.00 0.00 1013.8
20260509061320 0 0.0 0.0 0.00 0.00 0.00 1013.8
20260509060816 0 0.0 0.0 0.00 0.00 0.00 1013.6
20260509060314 0 0.0 0.0 0.00 0.00 0.00 1013.7
20260509055809 0 0.0 0.0 0.00 0.00 0.00 1013.7
20260509055306 0 0.0 0.0 0.00 0.00 0.00 1013.9
20260509054801 64 315 5.2 5.2 0.00 0.00 0.00 73 1013.9
20260509054258 64 315 5.2 5.2 0.00 0.00 0.00 73 1014.1
20260509053757 64 315 5.2 5.2 0.00 0.00 0.00 73 1014.2
20260509053253 64 315 5.2 5.2 0.00 0.00 0.00 73 1014.2
20260509052751 64 315 5.2 5.2 0.00 0.00 0.00 73 1014.3
20260509052249 64 315 5.2 5.2 0.00 0.00 0.00 73 1014.3
20260509051746 64 315 5.2 5.2 0.00 0.00 0.00 73 1014.2
20260509051244 64 315 5.2 5.2 0.00 0.00 0.00 73 1014.4
20260509050740 64 315 5.2 5.2 0.00 0.00 0.00 73 1014.3
20260509050237 64 315 5.2 5.2 0.00 0.00 0.00 73 1014.3
20260509045735 64 315 5.2 5.2 0.00 0.00 0.00 73 1014.2
20260509045231 64 315 5.2 5.2 0.00 0.00 0.00 73 1014.2
20260509044729 64 231 7.8 8.7 0.00 0.00 0.00 73 1014.2
20260509044226 64 231 7.8 8.7 0.00 0.00 0.00 73 1014.3
20260509043722 64 231 7.8 8.7 0.00 0.00 0.00 73 1013.9
20260509043218 64 254 5.2 7.8 0.00 0.00 0.00 73 1013.8
20260509042715 64 199 3.5 9.6 0.00 0.00 0.00 73 1014.0
20260509042211 65 180 2.6 8.7 0.00 0.00 0.00 73 1013.8
20260509041708 65 262 2.6 13.0 0.00 0.00 0.00 73 1013.7
20260509041205 65 209 5.2 7.0 0.00 0.00 0.00 73 1013.5
20260509040704 65 195 7.0 8.7 0.00 0.00 0.00 73 1013.5
20260509040200 65 234 0.9 5.2 0.00 0.00 0.00 73 1013.7
20260509035657 65 239 5.2 11.3 0.00 0.00 0.00 73 1013.3
20260509035153 66 227 7.0 9.6 0.00 0.00 0.00 73 1013.2
20260509034651 66 195 5.2 12.2 0.00 0.00 0.00 73 1013.0
20260509034148 66 197 6.1 6.1 0.00 0.00 0.00 73 1013.1
20260509033645 66 206 5.2 7.8 0.00 0.00 0.00 73 1012.6
20260509033142 66 208 4.3 8.7 0.00 0.00 0.00 73 1012.6
20260509032639 66 203 7.8 10.4 0.00 0.00 0.00 73 1012.8
20260509032136 66 202 7.8 8.7 0.00 0.00 0.00 73 1013.0
20260509031634 66 196 7.8 13.0 0.00 0.00 0.00 73 1012.8
20260509031131 66 208 7.8 13.0 0.00 0.00 0.00 73 1012.8
20260509030629 66 194 3.5 12.2 0.00 0.00 0.00 73 1013.2
20260509030126 66 199 10.4 11.3 0.00 0.00 0.00 73 1013.3
20260509025622 67 179 4.3 10.4 0.00 0.00 0.00 73 1013.3
20260509025118 67 203 5.2 12.2 0.00 0.00 0.00 73 1013.5
20260509024613 67 195 7.0 12.2 0.00 0.00 0.00 73 1013.0
20260509024110 67 146 8.7 13.0 0.00 0.00 0.00 73 1013.2
20260509023608 67 208 9.6 12.2 0.00 0.00 0.00 73 1013.2
20260509023104 67 209 6.1 13.0 0.00 0.00 0.00 73 1013.1
20260509022600 66 195 5.2 10.4 0.00 0.00 0.00 73 1013.0
20260509022059 67 211 7.8 10.4 0.00 0.00 0.00 73 1013.3
20260509021555 67 202 5.2 11.3 0.00 0.00 0.00 73 1013.2
20260509021052 67 180 2.6 10.4 0.00 0.00 0.00 73 1013.1
20260509020551 67 199 7.0 12.2 0.00 0.00 0.00 73 1013.0
20260509020047 67 157 6.1 11.3 0.00 0.00 0.00 73 1013.2
20260509015546 67 206 4.3 4.3 0.00 0.00 0.00 73 1013.4
20260509015043 68 187 7.8 12.2 0.00 0.00 0.00 73 1013.3
20260509014539 68 185 4.3 10.4 0.00 0.00 0.00 73 1013.2
20260509014036 68 180 4.3 12.2 0.00 0.00 0.00 73 1013.4
20260509013533 68 195 5.2 7.8 0.00 0.00 0.00 74 1013.4
20260509013028 68 186 5.2 9.6 0.00 0.00 0.00 73 1013.4
20260509012526 70 166 2.6 5.2 0.00 0.00 0.00 74 1013.4
20260509012022 70 166 2.6 5.2 0.00 0.00 0.00 74 1013.2
20260509011520 70 166 2.6 5.2 0.00 0.00 0.00 74 1012.7
20260509011017 70 166 2.6 5.2 0.00 0.00 0.00 74 1012.7
20260509010515 70 166 2.6 5.2 0.00 0.00 0.00 74 1012.4
20260509010011 70 166 2.6 5.2 0.00 0.00 0.00 74 1012.8
20260509005510 70 195 2.6 3.5 0.00 0.00 0.00 74 1013.1
20260509005009 70 195 2.6 3.5 0.00 0.00 0.00 74 1013.3
20260509004506 70 205 5.2 7.0 0.00 0.00 0.00 74 1013.2
20260509004004 71 203 7.8 9.6 0.00 0.00 0.00 74 1013.1
20260509003502 72 226 6.1 9.6 0.00 0.00 0.00 74 1013.0
20260509002958 72 226 6.1 9.6 0.00 0.00 0.00 74 1013.3
20260509002456 72 226 6.1 9.6 0.00 0.00 0.00 74 1013.2
20260509001953 72 226 6.1 9.6 0.00 0.00 0.00 74 1013.4
20260509001450 72 226 6.1 9.6 0.00 0.00 0.00 74 1013.2
20260509000946 72 217 8.7 8.7 0.00 0.00 0.00 74 1013.3
20260509000447 72 207 3.5 8.7 0.00 0.00 0.00 74 1012.8
20260508235940 72 209 4.3 8.7 0.00 0.00 0.00 74 1013.0
20260508235438 73 222 7.0 9.6 0.00 0.00 0.00 74 1012.8
20260508234934 73 204 7.0 11.3 0.00 0.00 0.00 74 1012.7
20260508234431 74 200 6.1 13.0 0.00 0.00 0.00 74 1012.8
20260508233929 74 205 4.3 8.7 0.00 0.00 0.00 74 1012.7
20260508233429 74 158 7.8 13.0 0.00 0.00 0.00 74 1013.0
20260508232925 74 205 8.7 10.4 0.00 0.00 0.00 74 1012.6
20260508232422 74 214 2.6 13.0 0.00 0.00 0.00 74 1012.6
20260508231919 75 189 5.2 7.0 0.00 0.00 0.00 74 1012.8
20260508231416 74 201 7.8 8.7 0.00 0.00 0.00 74 1012.8
20260508230913 75 209 2.6 11.3 0.00 0.00 0.00 74 1013.2
20260508230410 75 203 2.6 5.2 0.00 0.00 0.00 74 1013.1
20260508225907 74 203 10.4 13.9 0.00 0.00 0.00 74 1013.2
20260508225403 75 200 8.7 9.6 0.00 0.00 0.00 74 1013.3
20260508224901 75 205 6.1 8.7 0.00 0.00 0.00 74 1013.3
20260508224358 76 244 6.1 11.3 0.00 0.00 0.00 74 1013.3
20260508223856 75 194 5.2 7.8 0.00 0.00 0.00 74 1013.2
20260508223353 75 159 5.2 9.6 0.00 0.00 0.00 74 1013.5
20260508222851 75 257 3.5 7.0 0.00 0.00 0.00 74 1013.5
20260508222348 75 208 2.6 10.4 0.00 0.00 0.00 74 1013.7
20260508221844 76 213 7.8 13.0 0.00 0.00 0.00 74 1013.4
20260508221340 75 231 9.6 9.6 0.00 0.00 0.00 74 1013.5
20260508220836 75 213 3.5 9.6 0.00 0.00 0.00 74 1013.5
20260508220333 75 196 7.0 7.8 0.00 0.00 0.00 74 1013.6
20260508215829 74 214 7.8 10.4 0.00 0.00 0.00 74 1013.4
20260508215326 75 195 4.3 8.7 0.00 0.00 0.00 74 1013.6
20260508214823 76 250 3.5 8.7 0.00 0.00 0.00 75 1013.6
20260508214320 75 182 3.5 7.0 0.00 0.00 0.00 74 1013.6
20260508213817 76 148 4.3 4.3 0.00 0.00 0.00 75 1013.6
20260508213314 74 221 6.1 9.6 0.00 0.00 0.00 74 1013.5
20260508212810 76 138 2.6 4.3 0.00 0.00 0.00 75 1013.7
20260508212306 75 244 4.3 6.1 0.00 0.00 0.00 74 1013.7
20260508211802 74 186 4.3 11.3 0.00 0.00 0.00 74 1013.7
20260508211258 75 202 5.2 12.2 0.00 0.00 0.00 74 1013.9
20260508210756 75 249 8.7 10.4 0.00 0.00 0.00 74 1013.9
20260508210252 75 215 6.1 7.8 0.00 0.00 0.00 74 1014.1
20260508205749 75 221 5.2 11.3 0.00 0.00 0.00 74 1014.0
20260508205245 76 233 2.6 7.8 0.00 0.00 0.00 74 1014.0
20260508204742 75 221 4.3 6.1 0.00 0.00 0.00 74 1014.0
20260508204238 75 172 4.3 8.7 0.00 0.00 0.00 74 1014.2
20260508203734 74 207 7.0 13.9 0.00 0.00 0.00 74 1014.4
20260508203231 75 202 3.5 4.3 0.00 0.00 0.00 74 1014.4
20260508202727 76 245 3.5 5.2 0.00 0.00 0.00 74 1014.6
20260508202224 74 213 5.2 10.4 0.00 0.00 0.00 74 1014.4
20260508201721 74 222 8.7 10.4 0.00 0.00 0.00 74 1014.7
20260508201217 74 203 5.2 11.3 0.00 0.00 0.00 74 1014.6
20260508200714 74 198 5.2 9.6 0.00 0.00 0.00 74 1014.6
20260508200211 74 243 7.8 10.4 0.00 0.00 0.00 74 1014.8
20260508195707 73 197 5.2 17.4 0.00 0.00 0.00 74 1014.8
20260508195204 73 207 7.0 11.3 0.00 0.00 0.00 74 1015.1
20260508194700 74 215 6.1 7.0 0.00 0.00 0.00 74 1015.2
20260508194157 74 206 7.8 7.8 0.00 0.00 0.00 74 1015.3
20260508193654 74 205 5.2 12.2 0.00 0.00 0.00 74 1015.3
20260508193151 73 191 6.1 9.6 0.00 0.00 0.00 74 1015.3
20260508192647 73 203 2.6 12.2 0.00 0.00 0.00 74 1015.2
20260508192145 74 220 2.6 14.8 0.00 0.00 0.00 74 1015.4
20260508191642 73 154 4.3 11.3 0.00 0.00 0.00 74 1015.6
20260508191138 72 196 5.2 12.2 0.00 0.00 0.00 74 1015.6
20260508190636 73 200 8.7 17.4 0.00 0.00 0.00 74 1015.7
20260508190132 72 201 6.1 8.7 0.00 0.00 0.00 74 1015.6
20260508185629 73 201 5.2 12.2 0.00 0.00 0.00 74 1016.0
20260508185126 74 255 5.2 8.7 0.00 0.00 0.00 74 1015.8
20260508184623 73 206 2.6 13.0 0.00 0.00 0.00 74 1015.8
20260508184120 71 153 5.2 9.6 0.00 0.00 0.00 74 1016.1
20260508183617 72 201 7.8 11.3 0.00 0.00 0.00 74 1016.1
20260508183113 71 206 6.1 9.6 0.00 0.00 0.00 74 1016.0
20260508182609 71 183 4.3 14.8 0.00 0.00 0.00 74 1016.5
20260508182106 70 206 6.1 8.7 0.00 0.00 0.00 74 1016.4
20260508181601 71 213 7.0 10.4 0.00 0.00 0.00 74 1016.1
20260508181059 71 200 7.0 8.7 0.00 0.00 0.00 74 1016.4
20260508180555 71 186 4.3 12.2 0.00 0.00 0.00 74 1016.5
20260508180052 71 187 6.1 13.0 0.00 0.00 0.00 74 1016.7